Accueil
METAR-TAF:

METAR-TAF

Aéroports :

Flessingue, Pays-Bas

latitude: 51-27N, longitude: 3-36E, altitude: 10 m

Observation

Le bulletin a été fait il y a 38 minutes, à 23:55 UTC
Vent 9 kt de nord-est
Température 0°C
Humidité 86%
Pression 1024 hPa
Visibilité: 8000 m

METAR: EHFS 212355Z AUTO 05009KT 8000 NSC 00/M02 Q1024 W///H///

Heure: 01:33 (00:33 UTC)


TAF: absent

Observations et prévisions météorologiques de plus de 4000 aéroports (messages METAR et TAF).

Les stations disponibles sont représentées par des disques jaunes et rouges sur la carte.

Passer la souris dessus pour voir le nom de la station.

Cliquer dessus pour voir les observations et prévisions météorologiques.

Pour changer de carte: cliquez sur les boutons verts avec une croix noire pour zoomer, sur le bouton vert avec un tiret pour effectuer un zoom arrière, ou sur les flèches vertes pour les cartes adjacentes.


METAR-TAF: